[[{"header":{"parameterUnit":"m.s-1","parameterCategory":1,"la1":30.2991,"la2":30.254,"lo1":-89.0895,"lo2":-89.0444,"dy":0.0017,"dx":0.0017,"nx":28,"ny":28,"refTime":"2024-10-03T21:00:00:Z","depth":0,"parameterNumber":2,"parameterNumberName":"U-component_of_WINDS"},"data":[0,0,0,0,0,0,0,0,0,0,0,0,0,0,0,0,0,0,0,0,0,0,0,0,0,0,0,0,0,0,0,0,0,0,0,0,0,0,0,0,0,0,0,0,0,0,0,0,0,0,0,0,0,0,0,0,0,0,-3.6296,-3.6298,0,-3.6402,-3.6403,-3.6404,-3.6382,-3.638,-3.6378,-3.6377,-3.6481,-3.6486,-3.649,0,0,0,0,0,0,0,0,0,0,0,0,0,-3.6075,-3.6079,-3.6296,-3.6298,-3.6299,-3.6401,-3.6403,-3.6404,-3.6383,-3.638,-3.6378,-3.6376,-3.648,-3.6485,-3.6491,0,0,0,0,0,0,0,0,0,0,0,0,0,-3.6175,-3.608,-3.6296,-3.6301,-3.6302,-3.6401,-3.6403,-3.6405,-3.6383,-3.638,-3.6377,-3.6375,-3.6478,-3.6485,-3.6491,-3.6592,0,0,-3.6512,-3.6515,0,0,0,0,0,0,0,0,-3.6169,-3.6183,-3.6299,-3.63,-3.6302,-3.6376,-3.6363,-3.6467,-3.6384,-3.6352,-3.6377,-3.6373,-3.6448,-3.6457,-3.6483,-3.6597,-3.6601,-3.6513,-3.6517,-3.652,-3.6522,0,0,0,0,0,0,0,-3.6162,-3.6178,-3.6338,-3.63,-3.6303,-3.6297,-3.6308,-3.6383,-3.6415,-3.6355,-3.6353,-3.6366,-3.6449,-3.6477,-3.6486,-3.6603,-3.6513,-3.6519,-3.6523,-3.6526,-3.6804,-3.6807,0,0,0,0,0,0,-3.6154,-3.6172,-3.6334,-3.6341,-3.6227,-3.6303,-3.6315,-3.6355,-3.6414,-3.6421,-3.6369,-3.6365,-3.6467,-3.6478,-3.6489,-3.661,-3.652,-3.6527,-3.6531,-3.6801,-3.6805,-3.6808,0,0,0,0,0,0,-3.6149,-3.6169,-3.633,-3.6257,-3.6277,-3.631,-3.6355,-3.6359,-3.6387,-3.6425,-3.643,-3.6392,-3.6465,-3.648,-3.6567,-3.6614,-3.653,-3.6536,-3.6797,-3.6802,-3.6807,-3.6854,0,0,0,0,0,0,-3.6143,-3.6167,-3.6206,-3.6258,-3.6281,-3.6406,-3.6358,-3.6363,-3.6399,-3.6395,-3.6448,-3.6454,-3.6464,-3.6557,-3.6574,-3.6622,-3.6541,-3.6793,-3.6799,-3.6805,-3.6848,-3.6859,-3.6869,0,0,0,0,0,-3.6135,-3.6214,-3.6208,-3.6227,-3.633,-3.6409,-3.6422,-3.6433,-3.6403,-3.6442,-3.6467,-3.6452,-3.6607,-3.6566,-3.6585,-3.6636,-3.679,-3.6798,-3.6805,-3.6843,-3.6857,-3.6869,0,0,0,0,0,0,-3.6165,-3.622,-3.6214,-3.6312,-3.6356,-3.6405,-3.6454,-3.6448,-3.65,-3.6494,-3.6505,-3.6517,-3.6605,-3.6629,-3.6583,-3.6736,-3.6694,-3.6705,-3.6717,-3.673,-3.6741,-3.6732,-3.6547,0,0,0,0,0,-3.6183,-3.6244,-3.6289,-3.6371,-3.6394,-3.6421,-3.6455,-3.646,-3.6506,-3.6524,-3.6555,-3.6599,-3.6658,-3.6696,-3.6752,-3.6852,-3.6863,-3.6897,-3.6908,-3.6916,-3.6925,-3.698,-3.6996,-3.6833,-3.6833,-3.6832,0,0,-3.622,-3.6259,-3.6296,-3.6378,-3.6412,-3.6474,-3.6436,-3.6503,-3.6549,-3.6534,-3.6618,-3.6643,-3.6693,-3.6787,-3.683,-3.681,-3.6973,-3.6926,-3.6932,-3.6937,-3.699,-3.7005,-3.7019,-3.6838,-3.6837,-3.6836,0,0,-3.632,-3.6356,-3.6428,-3.6464,-3.6518,-3.6536,-3.6553,-3.6604,-3.662,-3.6706,-3.6696,-3.6751,-3.6851,-3.6887,-3.6919,-3.7036,-3.7024,-3.7054,-3.7109,-3.7162,-3.7175,-3.7187,-3.7227,-3.7242,-3.7063,-3.7063,-3.7063,0,-3.6359,-3.6453,-3.6466,-3.6534,-3.657,-3.6562,-3.6635,-3.6669,-3.6738,-3.6763,-3.674,-3.6867,-3.69,-3.7003,-3.7032,-3.7058,-3.7078,-3.7046,-3.7173,-3.7184,-3.7195,-3.7234,-3.7249,-3.7066,-3.7066,-3.7066,-3.7066,0,-3.6498,-3.6564,-3.6616,-3.6684,-3.6726,-3.6797,-3.682,-3.6861,-3.6863,-3.6884,-3.6971,-3.7011,-3.7075,-3.71,-3.7102,-3.7204,-3.719,-3.717,-3.7127,-3.7213,-3.725,-3.7265,-3.7071,-3.707,-3.7069,-3.7068,0,0,-3.6616,-3.6693,-3.6712,-3.6743,-3.6803,-3.6853,-3.6924,-3.6988,-3.7023,-3.7072,-3.713,-3.7217,-3.72,-3.7236,-3.7242,-3.729,-3.7379,-3.7264,-3.7265,-3.7283,-3.7493,-3.7506,-3.7523,-3.7373,-3.7376,-3.7378,-3.7488,0,-3.6721,-3.6845,-3.686,-3.6971,-3.7031,-3.7025,-3.7087,-3.713,-3.7152,-3.7206,-3.723,-3.7291,-3.7263,-3.7285,-3.7332,-3.7358,-3.7421,-3.7351,-3.7426,-3.7429,-3.7412,-3.7542,-3.7556,-3.7658,-3.7503,-3.7505,-3.7507,0,-3.6858,-3.6912,-3.7029,-3.7082,-3.7108,-3.7163,-3.7223,-3.7275,-3.7325,-3.7337,-3.7379,-3.738,-3.7453,-3.7409,-3.7509,-3.7461,-3.7494,-3.7511,-3.7516,-3.7521,-3.7471,-3.755,-3.7691,-3.7706,-3.753,-3.7528,-3.7526,0,-3.6931,-3.7033,-3.7117,-3.7144,-3.7208,-3.7246,-3.7275,-3.7321,-3.736,-3.7413,-3.7437,-3.7498,-3.7531,-3.7578,-3.7595,-3.7562,-3.7694,-3.7652,-3.7706,-3.7705,-3.7731,-3.7729,-3.7878,-3.7756,-3.7755,-3.7755,-3.7755,0,-3.7044,-3.7116,-3.715,-3.7201,-3.7282,-3.7298,-3.7377,-3.7404,-3.7446,-3.7502,-3.7501,-3.7554,-3.7574,-3.763,-3.7645,-3.7725,-3.774,-3.7752,-3.7754,-3.7751,-3.7749,-3.777,-3.7763,-3.7759,-3.7758,-3.7758,-3.7757,0,-3.7138,-3.7164,-3.7255,-3.7309,-3.7324,-3.7381,-3.7427,-3.7476,-3.7499,-3.7569,-3.7587,-3.7621,-3.7687,-3.771,-3.779,-3.78,-3.7893,-3.789,-3.7876,-3.7876,-3.7928,-3.7922,-3.8093,-3.8117,-3.7981,-3.7982,-3.7983,0,-3.7208,-3.7263,-3.7324,-3.7362,-3.7392,-3.7453,-3.7492,-3.7512,-3.7553,-3.7614,-3.7656,-3.7722,-3.7776,-3.7881,-3.7913,-3.7974,-3.7972,-3.8028,-3.7981,-3.7976,-3.7971,-3.7967,-3.7972,-3.8036,-3.8037,-3.8038,-3.8039,0,-3.7329,-3.7339,-3.7396,-3.7459,-3.7506,-3.7556,-3.7604,-3.7636,-3.7662,-3.7708,-3.7776,-3.7818,-3.7901,-3.7966,-3.8029,-3.8057,-3.8053,-3.8055,-3.807,-3.8066,-3.8055,-3.806,-3.7898,-3.805,-3.8049,-3.8048,-3.8047,-3.8047,-3.7412,-3.7461,-3.7511,-3.7575,-3.7614,-3.766,-3.7709,-3.7738,-3.7796,-3.7865,-3.7873,-3.7946,-3.7995,-3.808,-3.8112,-3.8169,-3.8153,-3.8176,-3.8181,-3.8186,-3.8189,-3.8048,-3.8181,-3.8181,-3.818,-3.818,-3.818,0,-3.7531,-3.7564,-3.7623,-3.7691,-3.7742,-3.7736,-3.7789,-3.7832,-3.7896,-3.7943,-3.7997,-3.8075,-3.8139,-3.8177,-3.8241,-3.828,-3.8279,-3.8296,-3.8292,-3.8299,-3.82,-3.818,-3.8295,-3.8295,-3.8295,-3.8295,-3.8295,-3.8295,-3.7599,-3.7682,-3.7699,-3.7801,-3.7833,-3.7906,-3.7937,-3.7979,-3.8016,-3.8104,-3.8158,-3.8183,-3.8227,-3.8294,-3.8352,-3.8362,-3.8385,-3.8403,-3.841,-3.8317,-3.8305,-3.8294,-3.8275,-3.8408,-3.8408,-3.8504,-3.8505,-3.8505]},{"header":{"parameterUnit":"m.s-1","parameterCategory":1,"la1":30.2991,"la2":30.254,"lo1":-89.0895,"lo2":-89.0444,"dy":0.0017,"dx":0.0017,"nx":28,"ny":28,"refTime":"2024-10-03T21:00:00:Z","depth":0,"parameterNumber":3,"parameterNumberName":"V-component_of_WINDS"},"data":[0,0,0,0,0,0,0,0,0,0,0,0,0,0,0,0,0,0,0,0,0,0,0,0,0,0,0,0,0,0,0,0,0,0,0,0,0,0,0,0,0,0,0,0,0,0,0,0,0,0,0,0,0,0,0,0,0,0,2.5698,2.5699,0,2.5798,2.5799,2.58,2.5832,2.5832,2.5831,2.5831,2.5928,2.5931,2.5934,0,0,0,0,0,0,0,0,0,0,0,0,0,2.5531,2.5534,2.5698,2.5699,2.5701,2.5798,2.5799,2.5801,2.5832,2.5832,2.5831,2.5831,2.5927,2.5931,2.5934,0,0,0,0,0,0,0,0,0,0,0,0,0,2.5615,2.5535,2.5698,2.5728,2.5732,2.5798,2.5799,2.5801,2.5832,2.5832,2.5831,2.583,2.5926,2.593,2.5935,2.5976,0,0,2.5949,2.5951,0,0,0,0,0,0,0,0,2.561,2.5621,2.5723,2.5726,2.5731,2.5802,2.5776,2.586,2.5832,2.5794,2.5831,2.583,2.5886,2.5894,2.5914,2.5981,2.5985,2.5949,2.5952,2.5954,2.5955,0,0,0,0,0,0,0,2.5604,2.5617,2.5738,2.5724,2.5729,2.5736,2.5747,2.5792,2.5843,2.5797,2.58,2.5812,2.5888,2.591,2.5917,2.5986,2.5949,2.5953,2.5956,2.5958,2.6094,2.6094,0,0,0,0,0,0,2.5594,2.5612,2.5734,2.5741,2.5667,2.5739,2.5752,2.578,2.5842,2.5851,2.5812,2.5813,2.5902,2.5911,2.592,2.5974,2.5954,2.5958,2.5961,2.6093,2.6094,2.6095,0,0,0,0,0,0,2.559,2.5604,2.573,2.5677,2.5693,2.5743,2.5774,2.5782,2.5803,2.5853,2.5862,2.5825,2.5902,2.5914,2.5963,2.5978,2.596,2.5964,2.6092,2.6093,2.6094,2.6081,0,0,0,0,0,0,2.5585,2.5603,2.562,2.5677,2.5696,2.5772,2.5775,2.5784,2.5812,2.5814,2.5868,2.5876,2.5903,2.5956,2.5967,2.5984,2.5968,2.609,2.6092,2.6094,2.608,2.6082,2.6083,0,0,0,0,0,2.5579,2.561,2.562,2.5635,2.5719,2.5773,2.5784,2.5815,2.5813,2.583,2.5862,2.5874,2.5974,2.5961,2.5974,2.5992,2.609,2.6092,2.6094,2.608,2.6081,2.6083,0,0,0,0,0,0,2.5551,2.5618,2.563,2.5681,2.5722,2.5778,2.58,2.5816,2.5856,2.5856,2.5891,2.5903,2.595,2.5976,2.5959,2.6036,2.6033,2.6037,2.6017,2.6019,2.6021,2.6013,2.5971,0,0,0,0,0,2.5551,2.5591,2.5647,2.5687,2.5707,2.575,2.5775,2.5796,2.5838,2.5855,2.5891,2.593,2.5971,2.5996,2.6036,2.6084,2.6097,2.6103,2.6104,2.6105,2.6109,2.6137,2.6141,2.6101,2.6101,2.6101,0,0,2.5551,2.5593,2.5616,2.5683,2.5716,2.5756,2.5764,2.5805,2.5835,2.5861,2.591,2.5938,2.5984,2.6033,2.6056,2.6056,2.6123,2.6108,2.6108,2.6111,2.614,2.6144,2.6147,2.6103,2.6103,2.6102,0,0,2.5572,2.5607,2.5645,2.5679,2.5731,2.576,2.5769,2.5824,2.5845,2.5895,2.5916,2.5951,2.6019,2.6052,2.6078,2.6113,2.6126,2.6125,2.6132,2.6159,2.6162,2.6165,2.6179,2.6183,2.6129,2.6129,2.6129,0,2.5565,2.5627,2.5662,2.5704,2.5732,2.576,2.5798,2.5829,2.589,2.5909,2.5908,2.5997,2.603,2.6088,2.6097,2.6116,2.6128,2.6119,2.6159,2.6163,2.6166,2.6179,2.6184,2.6128,2.6128,2.6128,2.6128,0,2.5616,2.5659,2.5683,2.5744,2.5776,2.5815,2.5856,2.5884,2.5902,2.5931,2.5983,2.6024,2.6073,2.6088,2.6106,2.6149,2.6148,2.6153,2.615,2.6169,2.6182,2.6187,2.6128,2.6128,2.6128,2.6128,0,0,2.562,2.5703,2.5711,2.574,2.58,2.5833,2.5874,2.5924,2.5948,2.5989,2.6024,2.6083,2.6089,2.6118,2.614,2.6164,2.619,2.6166,2.6168,2.617,2.6241,2.6237,2.6243,2.62,2.6201,2.6202,2.6238,0,2.5649,2.5725,2.5759,2.5819,2.5859,2.5887,2.5923,2.5963,2.5991,2.6029,2.606,2.6102,2.6106,2.6124,2.6149,2.6182,2.6205,2.618,2.6232,2.6233,2.622,2.6249,2.6245,2.6277,2.6243,2.6244,2.6244,0,2.5692,2.5737,2.5802,2.5859,2.5877,2.5908,2.5958,2.5994,2.604,2.606,2.6093,2.6115,2.6158,2.6153,2.6214,2.6196,2.6219,2.6239,2.6241,2.6247,2.624,2.6256,2.6288,2.6293,2.6253,2.6252,2.6251,0,2.569,2.5766,2.5815,2.5839,2.5906,2.5928,2.5957,2.6003,2.6031,2.6075,2.6094,2.614,2.6166,2.6202,2.6235,2.6228,2.6293,2.629,2.6309,2.6308,2.6321,2.632,2.6357,2.6336,2.6336,2.6336,2.6336,0,2.5718,2.5757,2.5815,2.5845,2.5889,2.5928,2.597,2.6001,2.6042,2.6078,2.6104,2.6137,2.6179,2.6218,2.6244,2.6291,2.6301,2.6318,2.6324,2.6316,2.6314,2.6331,2.633,2.6337,2.6337,2.6337,2.6336,0,2.5723,2.5763,2.5819,2.5879,2.5895,2.5925,2.5977,2.6007,2.6037,2.6083,2.6096,2.6143,2.619,2.6227,2.6287,2.6305,2.6354,2.6361,2.6339,2.6342,2.636,2.6358,2.641,2.6419,2.6391,2.6391,2.6391,0,2.5738,2.5769,2.5834,2.5861,2.589,2.5933,2.5964,2.6003,2.6033,2.609,2.6113,2.6162,2.6203,2.6276,2.6315,2.6362,2.637,2.6386,2.6377,2.6368,2.6371,2.6369,2.6373,2.6386,2.6386,2.6386,2.6386,0,2.5762,2.5781,2.5825,2.5876,2.5912,2.5954,2.5996,2.6016,2.6063,2.6095,2.6145,2.6177,2.624,2.6288,2.6339,2.6368,2.6385,2.6389,2.6396,2.6387,2.6374,2.6382,2.6342,2.6387,2.6387,2.6387,2.6387,2.6387,2.5773,2.5803,2.5853,2.5901,2.5938,2.5977,2.6009,2.6045,2.6087,2.6143,2.6163,2.6213,2.626,2.6331,2.636,2.64,2.6401,2.6411,2.6414,2.6416,2.6415,2.6368,2.6409,2.6409,2.6409,2.6409,2.6409,0,2.5799,2.5834,2.5877,2.5937,2.5975,2.599,2.6037,2.6068,2.6113,2.6156,2.6197,2.6254,2.6301,2.6345,2.6395,2.6418,2.6427,2.643,2.6429,2.6435,2.6411,2.64,2.6422,2.6422,2.6422,2.6422,2.6422,2.6422,2.5817,2.5868,2.5893,2.5962,2.5996,2.6048,2.6074,2.611,2.6145,2.6208,2.6249,2.6278,2.6321,2.6375,2.6419,2.6431,2.6448,2.6448,2.6462,2.6438,2.6437,2.6435,2.6425,2.6452,2.6452,2.6483,2.6484,2.6484]}]]